User: anonymous   Login
Location: Scultetus-Sternwarte G�rlitz
(51.1356°N, 14.9514°E)
Time: 22:45:00
(UTC+01:00)
Language:

Iridium 3 - Orbit

View from above orbital plane
View from above orbital plane
View from above satellite
View from above satellite

Ground track
Ground track

The orbit data is extracted from the following two-line orbital elements,

1 25431U 98048A   14352.33991010  .00000777  00000-0  27020-3 0    92
2 25431 086.3981 276.8136 0002299 099.9829 049.9680 14.34225316854917
Epoch (UTC): 18 December 2014 08:09:28
Eccentricity: 0.0002299
inclination: 86.3981°
perigee height: 776 km
apogee height: 779 km
right ascension of ascending node: 276.8136°
argument of perigee: 99.9829°
revolutions per day: 14.34225316
mean anomaly at epoch: 49.9680°
orbit number at epoch: 85491

The dashed part of the orbit path shows where the satellite is in the earth's shadow,  

DLR